Regional Weather Roundup
Issued by NWS

Home | Current Version | Previous Version | Text Only | Print | Product List | Glossary On
Versions: 1 2 3 4 5 6 7 8 9 10 11 12 13 14 15 16 17 18 19 20 21 22 23 24 25 26 27 28 29 30 31 32 33 34 35 36 37 38 39 40 41 42 43 44 45 46 47 48 49 50
000
ASUS43 KMKX 280500
RWRWI

WISCONSIN REGIONAL WEATHER ROUNDUP
NATIONAL WEATHER SERVICE MILWAUKEE/SULLIVAN WI
1200 AM CDT THU AUG 28 2014

NOTE: "FAIR" INDICATES FEW OR NO CLOUDS BELOW 12,000 FEET WITH NO
SIGNIFICANT WEATHER AND/OR OBSTRUCTIONS TO VISIBILITY.

WIZ001-002-006>008-014>016-023>028-280600-
NORTHWEST WISCONSIN

CITY           SKY/WX    TMP DP  RH WIND       PRES   REMARKS
SUPERIOR ARPT  PTCLDY    54  54  99 S6        30.14R
ASHLAND        CLEAR     50  49  96 SW5       30.16S
HAYWARD        CLEAR     53  52  96 CALM      30.17S
SIREN          CLEAR     54  52  93 CALM      30.16S
RICE LAKE      FOG       55  54  95 CALM      30.18S VSB 1
LADYSMITH      CLEAR     56  51  85 E5        30.19S
EAU CLAIRE     CLEAR     58  56  93 CALM      30.15S
MENOMONIE      CLEAR     61  57  86 CALM      30.16S
NEW RICHMOND   CLEAR     58  57  96 CALM      30.16S
OSCEOLA        CLEAR     59  58  97 E5        30.18S
$$

WIZ003>005-009-010-017-018-280600-
NORTH CENTRAL WISCONSIN

CITY           SKY/WX    TMP DP  RH WIND       PRES   REMARKS
WOODRUFF       CLEAR     52  48  88 CALM      30.19S
RHINELANDER    CLEAR     48  46  93 CALM      30.20R
EAGLE RIVER    CLEAR     46  46  99 CALM      30.18S
LAND O LAKES   CLEAR     43  43  99 CALM      30.20S FOG
PHILLIPS       CLEAR     51  50  98 CALM      30.18S
TOMAHAWK       CLEAR     47  46  95 CALM      30.19S
MEDFORD        CLEAR     52  50  92 NE6       30.18S
MERRILL        CLEAR     51  50  95 CALM      30.19R
$$

WIZ029-030-035-036-043>047-280600-
CENTRAL WISCONSIN

CITY           SKY/WX    TMP DP  RH WIND       PRES   REMARKS
WAUSAU         CLEAR     58  52  80 N3        30.16R
MOSINEE        CLEAR     59  52  77 N6        30.18R
MARSHFIELD     CLEAR     59  52  77 N3        30.16S
STEVENS POINT  CLEAR     53  52  94 CALM      30.17R
WAUPACA        PTCLDY    61  60  94 E3        30.16R
WAUTOMA        NOT AVBL
WISC RAPIDS    CLEAR     57  55  93 CALM      30.17R
CAMP DOUGLAS   FOG       55  55 100 NW3       30.15S VSB 3/4
$$

WIZ011>013-019>022-031-037>040-048>050-280600-
NORTHEAST WISCONSIN

CITY           SKY/WX    TMP DP  RH WIND       PRES   REMARKS
ANTIGO         CLEAR     53  49  89 N5        30.19R
STURGEON BAY   CLEAR     57  54  88 SE6       30.17S
GREEN BAY      PTCLDY    57  55  93 CALM      30.15S
MANITOWOC      NOT AVBL
APPLETON       CLEAR     61  55  82 SE5       30.16R
CLINTONVILLE   MOCLDY    59  57  94 CALM      30.15S
OSHKOSH        CLEAR     60  57  89 S5        30.15S
$$

WIZ032>034-041-042-053>061-280600-
SOUTHWEST WISCONSIN

CITY           SKY/WX    TMP DP  RH WIND       PRES   REMARKS
LA CROSSE      CLEAR     64  60  87 SE3       30.14S
SPARTA         CLEAR     56  55  95 CALM      30.16S
VIROQUA        FAIR      59  59 100 CALM      30.16S
BOSCOBEL       PTCLDY    60  58  92 CALM      30.15S FOG
PRAIRIE DU CHI PTCLDY    62  59  91 CALM      30.14S
PLATTEVILLE    FAIR      65  61  86 NE6       30.15F
$$

WIZ056-057-062-063-064-067-068-280600-
SOUTH CENTRAL WISCONSIN

CITY           SKY/WX    TMP DP  RH WIND       PRES   REMARKS
BARABOO/DELLS  CLEAR     60  58  94 CALM      30.15S
LONE ROCK      NOT AVBL
WATERTOWN      CLEAR     60  60 100 CALM      30.15S
MADISON        CLEAR     65  61  87 SE5       30.15R
MIDDLETON      FAIR      60  59  98 CALM      30.15S
MONROE         PTCLDY    64  61  88 E3        30.15R
JANESVILLE     MOCLDY    64  61  88 CALM      30.14S
$$

WIZ051-052-058>065-066-070>072-280600-
SOUTHEAST WISCONSIN

CITY           SKY/WX    TMP DP  RH WIND       PRES   REMARKS
MILWAUKEE      PTCLDY    64  56  75 E3        30.16R
WAUKESHA       CLEAR     55  54  94 CALM      30.17S
MILWAUKEE/TIMM CLEAR     61  54  77 CALM      30.17S
RACINE         CLEAR     65  57  75 E6        30.16S
BURLINGTON     CLEAR     57  57  99 CALM      30.15S
KENOSHA        CLEAR     61  58  90 N3        30.15S
FOND DU LAC    CLEAR     60  56  86 S6        30.16S
SHEBOYGAN      CLEAR     55  53  93 CALM      30.16S
WEST BEND      CLEAR     55  54  94 CALM      30.17S
JUNEAU         CLEAR     60  58  94 CALM      30.17S
$$

LSZ147-162-280600-
LAKE SUPERIOR

STATION/POSITION TIME  TEMP    WIND        PRES    WAVE
                       AIR SEA DIR/SP/G            HT/PER
                 (UTC) (F)     (DEG/KT/KT) (MB)    (FT/S)
W MID LAKE BUOY  0350   58 56  150/  6/  6 1021.0F   0
DEVILS ISLAND    0400   61     140/  8/  9 1020.8R
PORT WING        0400   58     150/  4/  6 1020.7R
SAXON HARBOR     0440   55     190/  6/  8 1021.0S
$$

LMZ867-665-643>646-280600-
LAKE MICHIGAN

STATION/POSITION TIME  TEMP    WIND        PRES    WAVE
                       AIR SEA DIR/SP/G            HT/PER
                 (UTC) (F)     (DEG/KT/KT) (MB)    (FT/S)
N MID LAKE BUOY  0350   64 65   40/ 10/ 12 1021.4R   1
NORTHPORT PIER   0400   64     100/  8/ 10 1021.3R
SISTER BAY       0341   60      CALM  /  3   N/A
KEWAUNEE LAKESHO 0400   65     160/  6/  8 1020.0R
SHEBOYGAN LAKESH 0400   66 68  100/  8/  8 1021.3R
ATWATER BUOY     0400   68     100/  8/ 10 1022.0R
MILWAUKEE LAKESH 0400   67      70/  9/ 11   N/A
S MID LAKE BUOY  0350   68 69   30/ 10/ 12 1020.5S   1/ 3
KENOSHA   LAKESH 0400   69      70/  9/ 11 1020.3F
$$

TC  - TEMPERATURE IN CELSIUS
VSB - VISIBILITY IN STATUTE MILES
WCI - WIND CHILL INDEX
HX  - HEAT INDEX



USA.gov is the U.S. government's official web portal to all federal, state and local government web resources and services.